Home   Weather   Toulon   Past weeks

Flag for France Past Weather in Toulon, Provence-Alpes-Côte d'Azur, France — Yesterday and Last 2 Weeks

Now
50 °F

Clear.


Feels Like: 47 °F
Forecast: 48 / 59 °F
Wind: 7 mph from North

Location: Hyeres Airport

Current Time: Dec 4, 2016 at 5:07:50 am

Latest Report: Dec 4, 2016 at 4:30 am


Visibility: 10 mi

Pressure: 30.12 "Hg

Humidity: 76%

Dew Point: 43 °F

Location of ToulonLocation

Past Weather in Toulon — Graph

°F

Toulon Temperature Yesterday

Maximum temperature yesterday: 61 °F (at 1:00 pm)
Minimum temperature yesterday: 36 °F (at 2:30 am)
Average temperature yesterday: 51 °F

High & Low Weather Summary for the Past Weeks

 TemperatureHumidityPressure
High68 °F (Nov 23, 11:30 am)94% (Nov 19, 7:30 am)30.51 "Hg (Nov 19, 7:30 am)
Low34 °F (Dec 1, 7:30 am)26% (Nov 19, 2:30 pm)29.77 "Hg (Nov 24, 9:00 pm)
Average54 °F79%30.00 "Hg
* Reported Nov 19 3:00 am — Dec 4 3:30 am, Toulon, Weather by CustomWeather, © 2016

Note: Actual official high and low records may vary slightly from our data, if they occured in-between our weather recording intervals... More about our weather records

Advertising

Toulon Weather History for the Previous 24 Hours

Scroll right to see more
 ConditionsComfort  
Time TempWeatherWind HumidityBarometerVisibility
3:30 am
Sun, Dec 4
50 °FClear.8 mph76%30.12 "Hg10 mi
3:00 am50 °FPassing clouds.8 mph76%30.12 "HgN/A
2:30 am52 °FPassing clouds.7 mph72%30.15 "HgN/A
2:00 am55 °FPassing clouds.7 mph67%30.12 "HgN/A
1:30 am55 °FClear.16 mph72%30.12 "Hg10 mi
1:00 am50 °FPassing clouds.6 mph82%30.12 "HgN/A
12:30 am50 °FPassing clouds.5 mph82%30.12 "HgN/A
12:00 am52 °FPassing clouds.6 mph82%30.12 "HgN/A
11:30 pm
Sat, Dec 3
54 °FMostly cloudy.7 mph77%30.12 "HgN/A
11:00 pm54 °FMostly cloudy.7 mph77%30.12 "HgN/A
10:30 pm52 °FOvercast.6 mph82%30.12 "HgN/A
10:00 pm52 °FOvercast.7 mph82%30.12 "HgN/A
9:30 pm52 °FPassing clouds.7 mph82%30.12 "HgN/A
9:00 pm52 °FPassing clouds.8 mph82%30.12 "HgN/A
8:30 pm54 °FPartly cloudy.7 mph77%30.12 "HgN/A
8:00 pm54 °FPassing clouds.8 mph82%30.09 "HgN/A
7:30 pm54 °FPassing clouds.7 mph77%30.09 "HgN/A
7:00 pm54 °FPartly cloudy.7 mph82%30.09 "HgN/A
6:30 pm57 °FPartly cloudy.16 mph72%30.07 "HgN/A
6:00 pm57 °FPartly cloudy.16 mph77%30.07 "HgN/A
5:30 pm57 °FOvercast.15 mph72%30.07 "HgN/A
5:00 pm57 °FPartly cloudy.16 mph77%30.07 "HgN/A
4:30 pm59 °FBroken clouds.15 mph72%30.04 "HgN/A
4:00 pm59 °FPartly sunny.15 mph72%30.04 "HgN/A
3:30 pm59 °FBroken clouds.14 mph72%30.04 "HgN/A
3:00 pm59 °FPartly sunny.15 mph72%30.04 "HgN/A
2:30 pm59 °FScattered clouds.16 mph72%30.04 "HgN/A
2:00 pm61 °FBroken clouds.16 mph68%30.04 "HgN/A
1:30 pm61 °FPartly sunny.15 mph68%30.04 "HgN/A
1:00 pm61 °FPartly sunny.15 mph72%30.04 "HgN/A
12:30 pm59 °FOvercast.14 mph72%30.04 "HgN/A
12:00 pm59 °FPartly sunny.10 mph68%30.04 "HgN/A
11:30 am59 °FMostly cloudy.9 mph63%30.07 "HgN/A
11:00 am59 °FMostly cloudy.6 mph68%30.07 "HgN/A
10:30 am57 °FPartly sunny.7 mph67%30.07 "HgN/A
10:00 am54 °FBroken clouds.6 mph77%30.04 "HgN/A
9:30 am52 °FBroken clouds.5 mph82%30.04 "HgN/A
9:00 am50 °FPartly sunny.6 mph82%30.04 "HgN/A
8:30 am50 °FCloudy.5 mph82%30.04 "HgN/A
8:00 am48 °FMostly cloudy.7 mph82%30.01 "HgN/A
7:30 am48 °FMostly cloudy.6 mph82%30.01 "HgN/A
7:00 am46 °FPassing clouds.8 mph87%30.01 "HgN/A
6:30 am45 °FPassing clouds.8 mph87%30.01 "HgN/A
6:00 am45 °FPassing clouds.8 mph87%29.98 "HgN/A
5:30 am41 °FPassing clouds.8 mph93%29.98 "HgN/A
5:00 am39 °FPassing clouds.8 mph93%29.98 "HgN/A
Weather by CustomWeather, © 2016

See weather overviewHow to use our weather pages